Regional Weather Roundup
Issued by NWS Little Rock, AR

Home | Current Version | Previous Version | Graphics & Text | Print | Product List | Glossary On
Versions: 1 2 3 4 5 6 7 8 9 10 11 12 13 14 15 16 17 18 19 20 21 22 23 24 25 26 27 28 29 30 31 32 33 34 35 36 37 38 39 40 41 42 43 44 45 46 47 48 49
000
ASUS44 KLZK 081805
RWRLZK

WEATHER ROUNDUP FOR ARKANSAS
NATIONAL WEATHER SERVICE LITTLE ROCK AR
1200 PM CST MON FEB 08 2016

NOTE: "FAIR" INDICATES FEW OR NO CLOUDS BELOW 12,000 FEET WITH NO
SIGNIFICANT WEATHER AND/OR OBSTRUCTIONS TO VISIBILITY.

ARZ001-003-010-029-081900-
NORTHWEST ARKANSAS

CITY           SKY/WX    TMP DP  RH WIND       PRES   REMARKS
FAYETTEVILLE   CLOUDY    38  18  44 NW16G28   30.08F
6HR MIN TEMP:  32; 6HR MAX TEMP:  38;

FORT SMITH     CLOUDY    46  14  27 W21G32    30.13F
6HR MIN TEMP:  38; 6HR MAX TEMP:  47;

HARRISON       CLOUDY    36  23  59 NW22G35   30.01R
6HR MIN TEMP:  33; 6HR MAX TEMP:  38; 6HR PCP: TRACE;

BENTONVILLE    CLOUDY    37  16  41 NW17G28   30.08F
6HR MIN TEMP:  34; 6HR MAX TEMP:  37;

ROGERS         CLOUDY    37  19  48 NW24G32   30.06S
6HR MIN TEMP:  32; 6HR MAX TEMP:  38; 6HR PCP: TRACE;

SILOAM SPGS    CLOUDY    39  16  38 NW25G40   30.10F
6HR MIN TEMP:  34; 6HR MAX TEMP:  41;

HIGHFILL       FLURRIES  38  19  46 NW23G33   30.07F
6HR MIN TEMP:  33; 6HR MAX TEMP:  39; 6HR PCP: TRACE;

SPRINGDALE     CLOUDY    37  18  44 NW22G43   30.08F
$$

ARZ004-005-016-081900-
NORTH CENTRAL ARKANSAS

CITY           SKY/WX    TMP DP  RH WIND       PRES   REMARKS
BATESVILLE     CLOUDY    43  16  33 W8G23     29.99F
6HR MIN TEMP:  39; 6HR MAX TEMP:  43;

FLIPPIN        CLOUDY   N/A N/A N/A W23G33    29.97S
MTN HOME       CLOUDY    39  19  44 NW9G29    29.97S
6HR MIN TEMP:  35; 6HR MAX TEMP:  39;

$$

ARZ040-041-081900-
WEST CENTRAL ARKANSAS

CITY           SKY/WX    TMP DP  RH WIND       PRES   REMARKS
MENA           MOSUNNY   46  19  34 NW18G35   30.11S
MOUNT IDA      MOSUNNY   46  16  30 NW16G35   30.06F
6HR MIN TEMP:  40; 6HR MAX TEMP:  47;

$$

ARZ009-017-025-026-028-081900-
NORTHEAST ARKANSAS

CITY           SKY/WX    TMP DP  RH WIND       PRES   REMARKS
CORNING        FAIR      39  23  52 NW21G29   29.94S
JONESBORO      CLOUDY    40  20  44 NW17G25   29.95F
6HR MIN TEMP:  37; 6HR MAX TEMP:  40;

NEWPORT        CLOUDY    44  18  35 NW20      29.99F
6HR MIN TEMP:  39; 6HR MAX TEMP:  45; 6HR PCP: TRACE;

WALNUT RIDGE   CLOUDY    41  18  38 NW23G29   29.95S
6HR MIN TEMP:  37; 6HR MAX TEMP:  43;

BLYTHEVILLE    CLOUDY    44  22  41 NW18G28   29.93F
6HR MIN TEMP:  38; 6HR MAX TEMP:  47;

$$

ARZ022-023-033-042-044-081900-
CENTRAL ARKANSAS

CITY           SKY/WX    TMP DP  RH WIND       PRES   REMARKS
LITTLE ROCK    PTSUNNY   47  15  27 NW28G40   30.04F
6HR MIN TEMP:  42; 6HR MAX TEMP:  49;

N LITTLE ROCK  PTSUNNY   43  17  35 NW13G28   30.04F
6HR MIN TEMP:  40; 6HR MAX TEMP:  44;

JACKSONVILLE   PTSUNNY   46  15  29 NW17G30   30.01F
6HR MIN TEMP:  39; 6HR MAX TEMP:  46;

SEARCY         PTSUNNY   44  18  35 W13G26    30.03F
6HR MIN TEMP:  37; 6HR MAX TEMP:  45;

HOT SPRINGS    MOSUNNY   47  16  29 NW13G31   30.07F
6HR MIN TEMP:  41; 6HR MAX TEMP:  47;

RUSSELLVILLE   CLOUDY    44  16  32 NW22G29   30.06S
6HR MIN TEMP:  39; 6HR MAX TEMP:  45;

CLINTON        CLOUDY    41  16  36 NW9G24    30.03S
$$

ARZ036-081900-
EAST ARKANSAS

CITY           SKY/WX    TMP DP  RH WIND       PRES   REMARKS
WEST MEMPHIS   CLOUDY    42  25  50 NW9G20    29.96F
6HR MIN TEMP:  36; 6HR MAX TEMP:  44;

$$

ARZ050-053-066-070-073-081900-
SOUTHWEST ARKANSAS

CITY           SKY/WX    TMP DP  RH WIND       PRES   REMARKS
ARKADELPHIA    FAIR      49  20  32 W17G26    30.10F
6HR MIN TEMP:  42; 6HR MAX TEMP:  49;

CAMDEN         LGT RAIN  52  12  20 W18G26    30.10F
TEXARKANA      SUNNY     50  18  28 W20G33    30.15F
6HR MIN TEMP:  42; 6HR MAX TEMP:  50;

EL DORADO      SUNNY     49  15  25 W18G40    30.12F
6HR MIN TEMP:  43; 6HR MAX TEMP:  49;

DE QUEEN       SUNNY     49  18  29 NW22G32   30.15F
6HR MIN TEMP:  41; 6HR MAX TEMP:  49;

$$

ARZ056-057-069-081900-
SOUTHEAST ARKANSAS

CITY           SKY/WX    TMP DP  RH WIND       PRES   REMARKS
PINE BLUFF     SUNNY     47  16  29 NW22G32   30.05F
6HR MIN TEMP:  41; 6HR MAX TEMP:  48;

STUTTGART      CLOUDY    45  21  39 NW22      30.03F
6HR MIN TEMP:  39; 6HR MAX TEMP:  46;

MONTICELLO     SUNNY     49  16  26 NW15G30   30.05F
6HR MIN TEMP:  42; 6HR MAX TEMP:  49;


$$






USA.gov is the U.S. government's official web portal to all federal, state and local government web resources and services.